| time (UTC) | temp F | wind direction | speed MPH | gust MPH | rain 1hr in | rain 24hr in | rain mn in | humidity % | barometer mb |
| 20260505124343 | 59 | 25 | 6.0 | 6.0 | 0.00 | 0.28 | 0.28 | 96 | 1009.5 |
| 20260505123839 | 58 | 47 | 6.0 | 8.0 | 0.00 | 0.28 | 0.28 | 96 | 1009.6 |
| 20260505123336 | 59 | 20 | 1.0 | 6.0 | 0.00 | 0.28 | 0.28 | 96 | 1009.3 |
| 20260505122831 | 58 | 11 | 1.0 | 6.0 | 0.00 | 0.28 | 0.28 | 96 | 1009.5 |
| 20260505122329 | 59 | 4 | 6.0 | 9.0 | 0.00 | 0.28 | 0.28 | 96 | 1009.0 |
| 20260505121826 | 59 | 28 | 9.0 | 9.0 | 0.00 | 0.28 | 0.28 | 96 | 1009.0 |
| 20260505121323 | 58 | 53 | 4.0 | 6.0 | 0.00 | 0.28 | 0.28 | 96 | 1009.0 |
| 20260505120819 | 58 | 8 | 4.0 | 6.0 | 0.00 | 0.28 | 0.28 | 96 | 1008.9 |
| 20260505120315 | 58 | 30 | 5.0 | 6.0 | 0.00 | 0.28 | 0.28 | 96 | 1009.0 |
| 20260505115814 | 58 | 32 | 6.0 | 8.0 | 0.00 | 0.28 | 0.28 | 96 | 1008.8 |
| 20260505115311 | 58 | 48 | 5.0 | 6.0 | 0.00 | 0.28 | 0.28 | 96 | 1009.0 |
| 20260505114809 | 58 | 60 | 3.0 | 5.0 | 0.00 | 0.28 | 0.28 | 96 | 1009.0 |
| 20260505114305 | 59 | 355 | 1.0 | 4.0 | 0.00 | 0.28 | 0.28 | 96 | 1009.1 |
| 20260505113801 | 59 | 355 | 5.0 | 8.0 | 0.00 | 0.28 | 0.28 | 96 | 1009.4 |
| 20260505113258 | 59 | 350 | 3.0 | 6.0 | 0.00 | 0.28 | 0.28 | 96 | 1009.0 |
| 20260505112754 | 58 | 0 | 3.0 | 9.0 | 0.00 | 0.28 | 0.28 | 96 | 1008.9 |
| 20260505112252 | 59 | 4 | 5.0 | 8.0 | 0.00 | 0.28 | 0.28 | 96 | 1009.1 |
| 20260505111747 | 59 | 5 | 3.0 | 6.0 | 0.00 | 0.28 | 0.28 | 96 | 1008.9 |
| 20260505111243 | 59 | 359 | 6.0 | 10.0 | 0.00 | 0.28 | 0.28 | 96 | 1008.6 |
| 20260505110739 | 59 | 355 | 3.0 | 7.0 | 0.00 | 0.28 | 0.28 | 96 | 1008.6 |
| 20260505110237 | 59 | 352 | 4.0 | 10.0 | 0.09 | 0.28 | 0.28 | 95 | 1008.5 |
| 20260505102212 | 60 | 212 | 3.0 | 3.0 | 0.05 | 0.24 | 0.24 | 95 | 1009.1 |
| 20260505101710 | 60 | 191 | 3.0 | 4.0 | 0.05 | 0.24 | 0.24 | 95 | 1008.3 |
| 20260505101206 | 60 | 196 | 4.0 | 5.0 | 0.00 | 0.23 | 0.23 | 95 | 1008.6 |
| 20260505100703 | 60 | 163 | 3.0 | 7.0 | 0.00 | 0.23 | 0.23 | 95 | 1008.6 |
| 20260505100200 | 60 | 151 | 5.0 | 7.0 | 0.05 | 0.23 | 0.23 | 95 | 1008.6 |
| 20260505095655 | 60 | 140 | 6.0 | 8.0 | 0.09 | 0.23 | 0.23 | 95 | 1008.6 |
| 20260505095154 | 60 | 172 | 5.0 | 7.0 | 0.17 | 0.22 | 0.22 | 95 | 1008.6 |
| 20260505094649 | 60 | 135 | 6.0 | 9.0 | 0.09 | 0.21 | 0.21 | 95 | 1008.3 |
| 20260505094145 | 60 | 170 | 6.0 | 7.0 | 0.05 | 0.20 | 0.20 | 95 | 1009.1 |
| 20260505093642 | 60 | 181 | 6.0 | 6.0 | 0.05 | 0.19 | 0.19 | 95 | 1008.5 |
| 20260505093140 | 59 | 161 | 5.0 | 9.0 | 0.07 | 0.19 | 0.19 | 95 | 1008.3 |
| 20260505092636 | 60 | 144 | 6.0 | 10.0 | 0.19 | 0.18 | 0.18 | 95 | 1008.3 |
| 20260505092135 | 60 | 166 | 5.0 | 6.0 | 0.12 | 0.17 | 0.17 | 95 | 1008.6 |
| 20260505091631 | 59 | 160 | 5.0 | 7.0 | 0.02 | 0.15 | 0.15 | 95 | 1008.8 |
| 20260505091129 | 60 | 145 | 4.0 | 6.0 | 0.00 | 0.15 | 0.15 | 95 | 1008.5 |
| 20260505090626 | 60 | 134 | 5.0 | 6.0 | 0.05 | 0.15 | 0.15 | 95 | 1008.3 |
| 20260505090125 | 60 | 146 | 3.0 | 9.0 | 0.05 | 0.15 | 0.15 | 95 | 1008.3 |
| 20260505085622 | 60 | 141 | 7.0 | 8.0 | 0.05 | 0.14 | 0.14 | 95 | 1008.3 |
| 20260505085120 | 60 | 148 | 5.0 | 7.0 | 0.12 | 0.14 | 0.14 | 95 | 1009.0 |
| 20260505084617 | 60 | 146 | 7.0 | 8.0 | 0.05 | 0.13 | 0.13 | 95 | 1008.5 |
| 20260505084116 | 60 | 129 | 3.0 | 5.0 | 0.02 | 0.12 | 0.12 | 95 | 1009.0 |
| 20260505083613 | 60 | 142 | 3.0 | 7.0 | 0.07 | 0.12 | 0.12 | 95 | 1009.0 |
| 20260505083109 | 60 | 141 | 5.0 | 5.0 | 0.12 | 0.12 | 0.12 | 95 | 1009.1 |
| 20260505082605 | 60 | 152 | 3.0 | 3.0 | 0.05 | 0.11 | 0.11 | 95 | 1009.5 |
| 20260505082102 | 60 | 117 | 0.0 | 2.0 | 0.02 | 0.10 | 0.10 | 95 | 1009.7 |
| 20260505081558 | 60 | 287 | 3.0 | 3.0 | 0.05 | 0.09 | 0.09 | 95 | 1009.8 |
| 20260505081055 | 60 | 310 | 2.0 | 3.0 | 0.07 | 0.09 | 0.09 | 95 | 1009.8 |
| 20260505080551 | 60 | 346 | 2.0 | 3.0 | 0.07 | 0.08 | 0.08 | 95 | 1009.4 |
| 20260505080049 | 60 | 121 | 3.0 | 4.0 | 0.09 | 0.07 | 0.07 | 98 | 1008.7 |
| 20260505075544 | 60 | 165 | 0.0 | 2.0 | 0.17 | 0.07 | 0.07 | 98 | 1009.6 |
| 20260505075041 | 60 | 49 | 2.0 | 3.0 | 0.17 | 0.06 | 0.06 | 99 | 1009.6 |
| 20260505074538 | 60 | 341 | 2.0 | 2.0 | 0.17 | 0.04 | 0.04 | 99 | 1010.4 |
| 20260505074035 | 60 | 273 | 3.0 | 4.0 | 0.12 | 0.02 | 0.02 | 99 | 1010.7 |
| 20260505073533 | 60 | 285 | 2.0 | 5.0 | 0.02 | 0.01 | 0.01 | 99 | 1010.7 |
| 20260505073032 | 60 | 295 | 5.0 | 5.0 | 0.00 | 0.00 | 0.00 | 99 | 1010.6 |
| 20260505072526 | 60 | 285 | 3.0 | 4.0 | 0.00 | 0.00 | 0.00 | 99 | 1010.8 |
| 20260505072023 | 60 | 290 | 2.0 | 5.0 | 0.00 | 0.00 | 0.00 | 98 | 1010.8 |
| 20260505071518 | 60 | 273 | 4.0 | 5.0 | 0.00 | 0.00 | 0.00 | 98 | 1010.8 |
| 20260505071017 | 61 | 279 | 6.0 | 7.0 | 0.00 | 0.00 | 0.00 | 98 | 1011.5 |
| 20260505070514 | 61 | 252 | 5.0 | 8.0 | 0.00 | 0.00 | 0.00 | 98 | 1011.6 |
| 20260505070010 | 61 | 264 | 5.0 | 7.0 | 0.00 | 0.00 | 0.00 | 97 | 1011.6 |
| 20260505065506 | 61 | 268 | 5.0 | 6.0 | 0.00 | 0.00 | 0.00 | 96 | 1010.6 |
| 20260505065002 | 61 | 270 | 0.0 | 5.0 | 0.00 | 0.00 | 0.00 | 95 | 1010.4 |
| 20260505064459 | 61 | 245 | 2.0 | 6.0 | 0.00 | 0.00 | 0.00 | 95 | 1010.4 |
| 20260505063958 | 62 | 270 | 3.0 | 10.0 | 0.00 | 0.00 | 0.00 | 94 | 1010.4 |
| 20260505063454 | 62 | 287 | 6.0 | 11.0 | 0.00 | 0.00 | 0.00 | 92 | 1010.2 |
| 20260505062950 | 62 | 175 | 7.0 | 16.0 | 0.00 | 0.00 | 0.00 | 90 | 1009.3 |
| 20260505062447 | 63 | 178 | 8.0 | 15.0 | 0.02 | 0.00 | 0.00 | 88 | 1009.0 |
| 20260505061944 | 64 | 206 | 10.0 | 17.0 | 0.02 | 0.00 | 0.00 | 85 | 1008.9 |
| 20260505061442 | 64 | 198 | 8.0 | 15.0 | 0.00 | 0.00 | 0.00 | 82 | 1008.9 |
| 20260505060940 | 64 | 180 | 5.0 | 13.0 | 0.00 | 0.00 | 0.00 | 82 | 1008.9 |
| 20260505060437 | 65 | 174 | 8.0 | 12.0 | 0.00 | 0.00 | 0.00 | 81 | 1009.3 |
| 20260505055933 | 65 | 163 | 5.0 | 11.0 | 0.00 | 0.00 | 0.00 | 80 | 1008.8 |
| 20260505055429 | 65 | 135 | 8.0 | 11.0 | 0.00 | 0.00 | 0.00 | 78 | 1009.0 |
| 20260505054926 | 65 | 163 | 5.0 | 7.0 | 0.00 | 0.00 | 0.00 | 78 | 1009.4 |
| 20260505054423 | 66 | 166 | 5.0 | 7.0 | 0.00 | 0.00 | 0.00 | 78 | 1009.4 |
| 20260505053921 | 66 | 206 | 5.0 | 7.0 | 0.00 | 0.00 | 0.00 | 77 | 1009.4 |
| 20260505053418 | 65 | 153 | 5.0 | 7.0 | 0.00 | 0.00 | 0.00 | 78 | 1009.3 |
| 20260505052915 | 65 | 167 | 5.0 | 7.0 | 0.00 | 0.00 | 0.00 | 79 | 1009.3 |
| 20260505052412 | 65 | 159 | 5.0 | 6.0 | 0.00 | 0.00 | 0.00 | 80 | 1009.4 |
| 20260505051909 | 65 | 163 | 5.0 | 5.0 | 0.00 | 0.00 | 0.00 | 80 | 1009.5 |
| 20260505051406 | 65 | 170 | 3.0 | 6.0 | 0.00 | 0.00 | 0.00 | 79 | 1009.4 |
| 20260505050904 | 65 | 164 | 6.0 | 7.0 | 0.00 | 0.00 | 0.00 | 79 | 1009.2 |
| 20260505050402 | 65 | 166 | 5.0 | 6.0 | 0.00 | 0.00 | 0.00 | 80 | 1009.1 |
| 20260505041330 | 65 | 162 | 5.0 | 7.0 | 0.00 | 0.00 | 0.00 | 80 | 1009.7 |
| 20260505040827 | 65 | 167 | 3.0 | 7.0 | 0.00 | 0.00 | 0.00 | 80 | 1009.4 |
| 20260505040324 | 64 | 150 | 4.0 | 5.0 | 0.00 | 0.00 | 0.00 | 81 | 1009.9 |
| 20260505035821 | 64 | 162 | 3.0 | 5.0 | 0.00 | 0.00 | 0.00 | 82 | 1009.6 |
| 20260505035317 | 64 | 159 | 3.0 | 5.0 | 0.00 | 0.00 | 0.00 | 82 | 1010.1 |
| 20260505034814 | 64 | 154 | 3.0 | 4.0 | 0.00 | 0.00 | 0.00 | 83 | 1010.0 |
| 20260505034311 | 63 | 152 | 3.0 | 3.0 | 0.00 | 0.00 | 0.00 | 84 | 1010.0 |
| 20260505033808 | 64 | 157 | 3.0 | 4.0 | 0.00 | 0.00 | 0.00 | 82 | 1010.1 |
| 20260505033305 | 64 | 140 | 3.0 | 3.0 | 0.00 | 0.00 | 0.00 | 81 | 1010.0 |
| 20260505032803 | 64 | 158 | 2.0 | 4.0 | 0.00 | 0.00 | 0.00 | 81 | 1010.0 |
| 20260505032259 | 64 | 172 | 3.0 | 4.0 | 0.00 | 0.00 | 0.00 | 81 | 1010.0 |
| 20260505031756 | 64 | 150 | 4.0 | 4.0 | 0.00 | 0.00 | 0.00 | 81 | 1010.1 |
| 20260505031252 | 64 | 176 | 2.0 | 4.0 | 0.00 | 0.00 | 0.00 | 82 | 1010.1 |
| 20260505030750 | 64 | 138 | 3.0 | 4.0 | 0.00 | 0.00 | 0.00 | 82 | 1009.9 |
| 20260505030246 | 64 | 144 | 2.0 | 3.0 | 0.00 | 0.00 | 0.00 | 82 | 1010.1 |
| 20260505025741 | 64 | 149 | 3.0 | 3.0 | 0.00 | 0.00 | 0.00 | 82 | 1010.0 |
| 20260505025240 | 64 | 154 | 1.0 | 2.0 | 0.00 | 0.00 | 0.00 | 83 | 1010.0 |
| 20260505024738 | 64 | 151 | 1.0 | 2.0 | 0.00 | 0.00 | 0.00 | 84 | 1009.9 |
| 20260505024235 | 64 | 180 | 1.0 | 3.0 | 0.00 | 0.00 | 0.00 | 83 | 1009.9 |
| 20260505023732 | 64 | 156 | 2.0 | 3.0 | 0.00 | 0.00 | 0.00 | 82 | 1009.7 |
| 20260505023229 | 64 | 168 | 1.0 | 3.0 | 0.00 | 0.00 | 0.00 | 82 | 1009.8 |
| 20260505022726 | 64 | 161 | 2.0 | 3.0 | 0.00 | 0.00 | 0.00 | 80 | 1009.7 |
| 20260505022223 | 64 | 165 | 2.0 | 3.0 | 0.00 | 0.00 | 0.00 | 82 | 1009.7 |
| 20260505021720 | 64 | 162 | 1.0 | 2.0 | 0.00 | 0.00 | 0.00 | 82 | 1009.8 |
| 20260505021217 | 64 | 151 | 2.0 | 2.0 | 0.00 | 0.00 | 0.00 | 80 | 1009.5 |
| 20260505020712 | 65 | 165 | 2.0 | 2.0 | 0.00 | 0.00 | 0.00 | 80 | 1009.7 |
| 20260505020208 | 65 | 173 | 3.0 | 3.0 | 0.00 | 0.00 | 0.00 | 79 | 1009.7 |
| 20260505015706 | 65 | 202 | 2.0 | 3.0 | 0.00 | 0.00 | 0.00 | 78 | 1009.5 |
| 20260505015202 | 65 | 186 | 3.0 | 3.0 | 0.00 | 0.00 | 0.00 | 78 | 1009.4 |
| 20260505014659 | 66 | 176 | 2.0 | 3.0 | 0.00 | 0.00 | 0.00 | 77 | 1009.5 |
| 20260505014156 | 66 | 180 | 2.0 | 3.0 | 0.00 | 0.00 | 0.00 | 77 | 1009.4 |
| 20260505013654 | 67 | 233 | 2.0 | 3.0 | 0.00 | 0.00 | 0.00 | 75 | 1009.3 |
| 20260505013150 | 67 | 230 | 3.0 | 3.0 | 0.00 | 0.00 | 0.00 | 75 | 1009.4 |
| 20260505012649 | 67 | 221 | 2.0 | 3.0 | 0.00 | 0.00 | 0.00 | 74 | 1009.3 |
| 20260505012146 | 68 | 190 | 2.0 | 4.0 | 0.00 | 0.00 | 0.00 | 73 | 1009.1 |
| 20260505011641 | 68 | 207 | 4.0 | 5.0 | 0.00 | 0.00 | 0.00 | 72 | 1009.1 |
| 20260505011139 | 69 | 214 | 3.0 | 5.0 | 0.00 | 0.00 | 0.00 | 71 | 1009.2 |
| 20260505010634 | 69 | 216 | 3.0 | 6.0 | 0.00 | 0.00 | 0.00 | 70 | 1009.2 |
| 20260505010131 | 70 | 228 | 6.0 | 9.0 | 0.00 | 0.00 | 0.00 | 68 | 1008.9 |
| 20260505005627 | 70 | 215 | 5.0 | 9.0 | 0.00 | 0.00 | 0.00 | 68 | 1008.9 |
| 20260505005124 | 70 | 207 | 7.0 | 10.0 | 0.00 | 0.00 | 0.00 | 67 | 1009.0 |
| 20260505004621 | 70 | 198 | 6.0 | 16.0 | 0.00 | 0.00 | 0.00 | 66 | 1008.8 |
| 20260505004118 | 71 | 220 | 6.0 | 11.0 | 0.00 | 0.00 | 0.00 | 66 | 1008.8 |
| 20260505003615 | 71 | 216 | 5.0 | 10.0 | 0.00 | 0.00 | 0.00 | 67 | 1008.8 |
| 20260505003112 | 71 | 170 | 7.0 | 10.0 | 0.00 | 0.00 | 0.00 | 66 | 1008.9 |
| 20260505002607 | 71 | 197 | 7.0 | 8.0 | 0.00 | 0.00 | 0.00 | 67 | 1008.7 |
| 20260505002101 | 72 | 205 | 6.0 | 10.0 | 0.00 | 0.00 | 0.00 | 65 | 1008.9 |
| 20260505001557 | 72 | 208 | 6.0 | 11.0 | 0.00 | 0.00 | 0.00 | 64 | 1008.7 |
| 20260505001055 | 73 | 202 | 8.0 | 13.0 | 0.00 | 0.00 | 0.00 | 63 | 1008.3 |
| 20260505000552 | 73 | 208 | 9.0 | 12.0 | 0.00 | 0.00 | 0.00 | 63 | 1008.7 |
| 20260505000050 | 73 | 195 | 7.0 | 15.0 | 0.00 | 0.00 | 0.00 | 63 | 1008.6 |
| 20260504235546 | 72 | 206 | 5.0 | 9.0 | 0.00 | 0.00 | 0.00 | 65 | 1008.7 |
| 20260504235043 | 73 | 195 | 7.0 | 11.0 | 0.00 | 0.00 | 0.00 | 64 | 1008.3 |
| 20260504234540 | 73 | 203 | 8.0 | 11.0 | 0.00 | 0.00 | 0.00 | 63 | 1008.5 |
| 20260504234037 | 73 | 204 | 8.0 | 12.0 | 0.00 | 0.00 | 0.00 | 62 | 1008.6 |
| 20260504233532 | 73 | 207 | 5.0 | 6.0 | 0.00 | 0.00 | 0.00 | 63 | 1008.6 |
| 20260504233029 | 74 | 197 | 5.0 | 7.0 | 0.00 | 0.00 | 0.00 | 63 | 1008.6 |
| 20260504232526 | 74 | 185 | 5.0 | 10.0 | 0.00 | 0.00 | 0.00 | 63 | 1008.5 |
| 20260504232024 | 74 | 197 | 6.0 | 13.0 | 0.00 | 0.00 | 0.00 | 62 | 1008.6 |
| 20260504231521 | 74 | 170 | 5.0 | 9.0 | 0.00 | 0.00 | 0.00 | 63 | 1008.7 |
| 20260504231017 | 75 | 192 | 7.0 | 9.0 | 0.00 | 0.00 | 0.00 | 62 | 1008.8 |
| 20260504230513 | 75 | 171 | 6.0 | 12.0 | 0.00 | 0.00 | 0.00 | 61 | 1008.7 |
| 20260504230012 | 75 | 199 | 13.0 | 17.0 | 0.00 | 0.00 | 0.00 | 59 | 1008.7 |
| 20260504225509 | 75 | 185 | 6.0 | 15.0 | 0.00 | 0.00 | 0.00 | 59 | 1008.5 |
| 20260504225006 | 75 | 210 | 6.0 | 12.0 | 0.00 | 0.00 | 0.00 | 61 | 1008.7 |
| 20260504224503 | 75 | 191 | 9.0 | 13.0 | 0.00 | 0.00 | 0.00 | 60 | 1008.5 |
| 20260504223959 | 75 | 175 | 10.0 | 15.0 | 0.00 | 0.00 | 0.00 | 59 | 1008.3 |
| 20260504223456 | 76 | 202 | 12.0 | 16.0 | 0.00 | 0.00 | 0.00 | 58 | 1008.6 |
| 20260504222951 | 76 | 187 | 11.0 | 16.0 | 0.00 | 0.00 | 0.00 | 58 | 1008.5 |
| 20260504222449 | 77 | 169 | 6.0 | 10.0 | 0.00 | 0.00 | 0.00 | 61 | 1008.3 |
| 20260504221947 | 76 | 189 | 6.0 | 17.0 | 0.00 | 0.00 | 0.00 | 56 | 1008.3 |
| 20260504221444 | 77 | 188 | 7.0 | 21.0 | 0.00 | 0.00 | 0.00 | 60 | 1008.9 |
| 20260504220941 | 77 | 207 | 8.0 | 13.0 | 0.00 | 0.00 | 0.00 | 57 | 1008.6 |
| 20260504220437 | 77 | 188 | 9.0 | 17.0 | 0.00 | 0.00 | 0.00 | 56 | 1008.7 |
| 20260504215934 | 76 | 197 | 13.0 | 18.0 | 0.00 | 0.00 | 0.00 | 56 | 1008.7 |
| 20260504215431 | 77 | 173 | 6.0 | 15.0 | 0.00 | 0.00 | 0.00 | 59 | 1008.7 |
| 20260504214927 | 77 | 169 | 12.0 | 16.0 | 0.00 | 0.00 | 0.00 | 57 | 1008.9 |
| 20260504214424 | 77 | 216 | 11.0 | 16.0 | 0.00 | 0.00 | 0.00 | 57 | 1008.8 |
| 20260504213920 | 77 | 207 | 10.0 | 19.0 | 0.00 | 0.00 | 0.00 | 56 | 1008.8 |
| 20260504213416 | 77 | 164 | 11.0 | 15.0 | 0.00 | 0.00 | 0.00 | 55 | 1008.8 |
| 20260504212914 | 77 | 164 | 13.0 | 19.0 | 0.00 | 0.00 | 0.00 | 56 | 1008.9 |
| 20260504212415 | 77 | 201 | 8.0 | 17.0 | 0.00 | 0.00 | 0.00 | 58 | 1008.9 |
| 20260504211913 | 77 | 201 | 9.0 | 17.0 | 0.00 | 0.00 | 0.00 | 58 | 1009.0 |
| 20260504211409 | 78 | 194 | 8.0 | 17.0 | 0.00 | 0.00 | 0.00 | 59 | 1009.0 |
| 20260504210906 | 78 | 181 | 11.0 | 17.0 | 0.00 | 0.00 | 0.00 | 58 | 1009.1 |
| 20260504210403 | 78 | 186 | 7.0 | 19.0 | 0.00 | 0.00 | 0.00 | 58 | 1009.1 |
| 20260504205900 | 78 | 179 | 8.0 | 18.0 | 0.00 | 0.00 | 0.00 | 55 | 1009.1 |
| 20260504205358 | 78 | 199 | 10.0 | 19.0 | 0.00 | 0.00 | 0.00 | 56 | 1009.0 |
| 20260504204856 | 78 | 195 | 12.0 | 20.0 | 0.00 | 0.00 | 0.00 | 56 | 1009.3 |
| 20260504204354 | 77 | 206 | 15.0 | 21.0 | 0.00 | 0.00 | 0.00 | 55 | 1009.1 |
| 20260504203854 | 78 | 207 | 12.0 | 24.0 | 0.00 | 0.00 | 0.00 | 57 | 1009.2 |
| 20260504203349 | 78 | 223 | 9.0 | 15.0 | 0.00 | 0.00 | 0.00 | 57 | 1009.3 |
| 20260504202845 | 78 | 206 | 17.0 | 18.0 | 0.00 | 0.00 | 0.00 | 58 | 1009.5 |
| 20260504202343 | 78 | 177 | 7.0 | 23.0 | 0.00 | 0.00 | 0.00 | 58 | 1009.5 |
| 20260504201839 | 77 | 203 | 17.0 | 22.0 | 0.00 | 0.00 | 0.00 | 57 | 1009.6 |
| 20260504201337 | 77 | 214 | 11.0 | 24.0 | 0.00 | 0.00 | 0.00 | 57 | 1009.8 |
| 20260504200834 | 77 | 187 | 11.0 | 27.0 | 0.00 | 0.00 | 0.00 | 55 | 1009.9 |
| 20260504200331 | 77 | 216 | 12.0 | 25.0 | 0.00 | 0.00 | 0.00 | 57 | 1010.1 |
| 20260504195827 | 77 | 205 | 9.0 | 22.0 | 0.00 | 0.00 | 0.00 | 57 | 1009.8 |
| 20260504195323 | 77 | 224 | 11.0 | 23.0 | 0.00 | 0.00 | 0.00 | 61 | 1009.9 |
| 20260504194820 | 77 | 196 | 12.0 | 22.0 | 0.00 | 0.00 | 0.00 | 58 | 1009.9 |
| 20260504194316 | 78 | 205 | 11.0 | 20.0 | 0.00 | 0.00 | 0.00 | 60 | 1009.9 |
| 20260504193812 | 77 | 208 | 14.0 | 26.0 | 0.00 | 0.00 | 0.00 | 59 | 1010.1 |
| 20260504193309 | 77 | 206 | 17.0 | 21.0 | 0.00 | 0.00 | 0.00 | 58 | 1010.2 |
| 20260504192808 | 77 | 209 | 13.0 | 26.0 | 0.00 | 0.00 | 0.00 | 59 | 1010.1 |
| 20260504192306 | 77 | 178 | 16.0 | 26.0 | 0.00 | 0.00 | 0.00 | 58 | 1010.0 |
| 20260504191804 | 76 | 204 | 17.0 | 25.0 | 0.00 | 0.00 | 0.00 | 56 | 1010.0 |
| 20260504191301 | 77 | 207 | 17.0 | 21.0 | 0.00 | 0.00 | 0.00 | 60 | 1010.1 |
| 20260504190756 | 77 | 192 | 15.0 | 24.0 | 0.00 | 0.00 | 0.00 | 57 | 1010.1 |
| 20260504190253 | 77 | 168 | 10.0 | 20.0 | 0.00 | 0.00 | 0.00 | 59 | 1010.0 |
| 20260504185749 | 76 | 201 | 18.0 | 20.0 | 0.00 | 0.00 | 0.00 | 58 | 1010.3 |
| 20260504185246 | 77 | 209 | 13.0 | 23.0 | 0.00 | 0.00 | 0.00 | 60 | 1010.0 |
| 20260504184742 | 77 | 223 | 17.0 | 20.0 | 0.00 | 0.00 | 0.00 | 58 | 1010.1 |
| 20260504184238 | 76 | 186 | 13.0 | 20.0 | 0.00 | 0.00 | 0.00 | 58 | 1010.2 |
| 20260504183734 | 76 | 223 | 19.0 | 26.0 | 0.00 | 0.00 | 0.00 | 58 | 1010.4 |
| 20260504183231 | 76 | 188 | 11.0 | 21.0 | 0.00 | 0.00 | 0.00 | 60 | 1010.2 |
| 20260504182729 | 76 | 200 | 13.0 | 23.0 | 0.00 | 0.00 | 0.00 | 59 | 1010.2 |
| 20260504182226 | 75 | 187 | 12.0 | 21.0 | 0.00 | 0.00 | 0.00 | 59 | 1010.6 |
| 20260504181724 | 75 | 206 | 14.0 | 28.0 | 0.00 | 0.00 | 0.00 | 58 | 1010.4 |
| 20260504181221 | 75 | 217 | 8.0 | 25.0 | 0.00 | 0.00 | 0.00 | 59 | 1010.5 |
| 20260504180720 | 75 | 198 | 19.0 | 21.0 | 0.00 | 0.00 | 0.00 | 60 | 1010.7 |
| 20260504180218 | 75 | 197 | 11.0 | 25.0 | 0.00 | 0.00 | 0.00 | 59 | 1010.5 |
| 20260504175716 | 75 | 207 | 15.0 | 23.0 | 0.00 | 0.00 | 0.00 | 57 | 1010.7 |
| 20260504175212 | 75 | 205 | 17.0 | 22.0 | 0.00 | 0.00 | 0.00 | 58 | 1010.4 |
| 20260504174710 | 75 | 178 | 16.0 | 24.0 | 0.00 | 0.00 | 0.00 | 59 | 1010.5 |
| 20260504174208 | 76 | 207 | 7.0 | 14.0 | 0.00 | 0.00 | 0.00 | 62 | 1010.7 |
| 20260504173704 | 75 | 220 | 23.0 | 24.0 | 0.00 | 0.00 | 0.00 | 57 | 1010.7 |
| 20260504173201 | 75 | 211 | 21.0 | 21.0 | 0.00 | 0.00 | 0.00 | 60 | 1010.5 |
| 20260504172658 | 75 | 206 | 15.0 | 20.0 | 0.00 | 0.00 | 0.00 | 58 | 1010.7 |
| 20260504172154 | 74 | 205 | 17.0 | 21.0 | 0.00 | 0.00 | 0.00 | 58 | 1010.9 |
| 20260504171650 | 74 | 201 | 18.0 | 23.0 | 0.00 | 0.00 | 0.00 | 57 | 1010.6 |
| 20260504171148 | 74 | 198 | 13.0 | 20.0 | 0.00 | 0.00 | 0.00 | 59 | 1010.8 |
| 20260504170644 | 74 | 204 | 17.0 | 23.0 | 0.00 | 0.00 | 0.00 | 57 | 1011.4 |
| 20260504170142 | 74 | 224 | 23.0 | 26.0 | 0.00 | 0.00 | 0.00 | 58 | 1011.3 |
| 20260504151033 | 70 | 205 | 15.0 | 22.0 | 0.00 | 0.00 | 0.00 | 60 | 1012.0 |
| 20260504150531 | 71 | 201 | 9.0 | 17.0 | 0.00 | 0.00 | 0.00 | 62 | 1012.0 |
| 20260504140957 | 68 | 214 | 12.0 | 18.0 | 0.00 | 0.00 | 0.00 | 62 | 1012.7 |
| 20260504140453 | 68 | 205 | 12.0 | 19.0 | 0.00 | 0.00 | 0.00 | 62 | 1012.5 |
| 20260504130418 | 64 | 180 | 10.0 | 22.0 | 0.00 | 0.00 | 0.00 | 64 | 1012.9 |